Location: St. Louis
(38.6270°N, 90.1994°W)
Time: 11:14:01
(UTC-06:00)

Explorer 7 - Visible Passes

Search period start: 06 December 2021 00:00
Search period end: 16 December 2021 00:00
Orbit: 483 x 675 km, 50.3° (Epoch: 06 December)

Date Brightness Start Highest point End Pass type
(mag) Time Alt. Az. Time Alt. Az. Time Alt. Az.
06 Dec 9.3 04:12:56 19° ENE 04:12:56 19° ENE 04:14:13 10° ENE visible
06 Dec 7.9 05:49:12 23° WNW 05:50:41 29° NNW 05:54:20 10° NE visible
07 Dec 9.4 04:17:13 17° NE 04:17:13 17° NE 04:18:15 10° NE visible
07 Dec 8.3 05:53:30 19° NW 05:54:55 23° NNW 05:58:15 10° NE visible
08 Dec 9.5 04:21:24 15° NE 04:21:24 15° NE 04:22:13 10° NE visible
08 Dec 8.5 05:57:40 16° NW 05:59:11 19° NNW 06:02:13 10° NE visible
09 Dec 9.5 04:25:28 14° NE 04:25:28 14° NE 04:26:08 10° NE visible
09 Dec 8.7 06:01:44 14° NW 06:03:30 17° N 06:06:17 10° NE visible
10 Dec 9.5 04:29:27 13° NNE 04:29:27 13° NNE 04:30:02 10° NE visible
10 Dec 8.8 06:05:43 12° NW 06:07:50 16° N 06:10:30 10° NE visible
11 Dec 9.5 04:33:24 13° NNE 04:33:24 13° NNE 04:33:58 10° NE visible
11 Dec 8.8 06:09:39 11° NW 06:12:10 17° N 06:14:53 10° NE visible
12 Dec 9.5 04:37:18 13° NNE 04:37:18 13° NNE 04:37:57 10° NE visible
12 Dec 8.7 06:13:33 10° NW 06:16:30 18° N 06:19:23 10° NE visible
13 Dec 9.4 04:41:10 13° NNE 04:41:10 13° NNE 04:42:03 10° NE visible
13 Dec 8.6 06:17:31 10° NW 06:20:48 21° NNE 06:23:56 10° ENE visible
14 Dec 9.3 04:45:02 14° NNE 04:45:02 14° NNE 04:46:17 10° NE visible
14 Dec 8.3 06:21:27 10° NW 06:25:03 26° NNE 06:28:29 10° ENE visible
15 Dec 9.2 04:48:55 16° NNE 04:48:55 16° NNE 04:50:41 10° NE visible
15 Dec 7.9 06:25:20 10° NW 06:29:15 34° NNE 06:32:56 10° E visible
